| time (UTC) | temp F | wind direction | speed MPH | gust MPH | rain 1hr in | rain 24hr in | rain mn in | humidity % | barometer mb |
| 20260507140015 | 58 | 0.0 | 0.0 | 0.00 | 0.53 | 0.21 | 77 | 1015.2 | |
| 20260507135015 | 58 | 0.0 | 0.0 | 0.00 | 0.53 | 0.21 | 78 | 1015.2 | |
| 20260507134018 | 58 | 0.0 | 0.0 | 0.00 | 0.53 | 0.21 | 77 | 1015.3 | |
| 20260507133016 | 57 | 0.0 | 0.0 | 0.00 | 0.53 | 0.21 | 80 | 1015.3 | |
| 20260507132015 | 57 | 0.0 | 0.0 | 0.00 | 0.54 | 0.21 | 81 | 1015.2 | |
| 20260507131015 | 55 | 0.0 | 0.0 | 0.00 | 0.54 | 0.21 | 84 | 1015.2 | |
| 20260507130059 | 54 | 0.0 | 0.0 | 0.00 | 0.54 | 0.21 | 87 | 1015.2 | |
| 20260507125035 | 54 | 0.0 | 0.0 | 0.00 | 0.55 | 0.21 | 87 | 1015.2 | |
| 20260507124018 | 53 | 0.0 | 0.0 | 0.00 | 0.55 | 0.21 | 87 | 1015.2 | |
| 20260507123015 | 54 | 0.0 | 0.0 | 0.00 | 0.55 | 0.21 | 86 | 1015.1 | |
| 20260507122119 | 54 | 0.0 | 0.0 | 0.00 | 0.55 | 0.21 | 85 | 1015.1 | |
| 20260507121035 | 55 | 0.0 | 0.0 | 0.00 | 0.55 | 0.21 | 83 | 1015.0 | |
| 20260507120015 | 56 | 0.0 | 0.0 | 0.00 | 0.55 | 0.21 | 81 | 1015.2 | |
| 20260507115037 | 57 | 0.0 | 0.0 | 0.00 | 0.55 | 0.21 | 81 | 1015.1 | |
| 20260507114035 | 56 | 0.0 | 0.0 | 0.00 | 0.55 | 0.21 | 78 | 1015.1 | |
| 20260507113015 | 56 | 0.0 | 0.0 | 0.00 | 0.56 | 0.21 | 79 | 1015.2 | |
| 20260507112015 | 56 | 0.0 | 0.0 | 0.00 | 0.56 | 0.21 | 79 | 1015.1 | |
| 20260507111035 | 56 | 0.0 | 0.0 | 0.00 | 0.56 | 0.21 | 80 | 1015.1 | |
| 20260507110119 | 56 | 0.0 | 0.0 | 0.00 | 0.56 | 0.21 | 80 | 1015.0 | |
| 20260507105035 | 56 | 0.0 | 0.0 | 0.00 | 0.56 | 0.21 | 81 | 1015.0 | |
| 20260507104016 | 55 | 0.0 | 0.0 | 0.00 | 0.56 | 0.21 | 82 | 1015.0 | |
| 20260507103015 | 55 | 0.0 | 0.0 | 0.00 | 0.56 | 0.21 | 82 | 1015.0 | |
| 20260507102035 | 54 | 0.0 | 0.0 | 0.00 | 0.56 | 0.21 | 84 | 1015.1 | |
| 20260507101015 | 54 | 0.0 | 0.0 | 0.00 | 0.56 | 0.21 | 84 | 1015.0 | |
| 20260507100015 | 53 | 0.0 | 0.0 | 0.00 | 0.56 | 0.21 | 86 | 1014.9 | |
| 20260507095017 | 53 | 0.0 | 0.0 | 0.00 | 0.56 | 0.21 | 87 | 1014.9 | |
| 20260507094135 | 52 | 0.0 | 0.0 | 0.00 | 0.56 | 0.21 | 88 | 1014.9 | |
| 20260507093015 | 52 | 0.0 | 0.0 | 0.00 | 0.56 | 0.21 | 90 | 1014.8 | |
| 20260507092016 | 51 | 0.0 | 0.0 | 0.00 | 0.56 | 0.21 | 91 | 1014.8 | |
| 20260507091015 | 51 | 0.0 | 0.0 | 0.00 | 0.56 | 0.21 | 91 | 1014.8 | |
| 20260507090016 | 51 | 0.0 | 0.0 | 0.00 | 0.56 | 0.21 | 91 | 1014.6 | |
| 20260507085141 | 50 | 0.0 | 0.0 | 0.00 | 0.56 | 0.21 | 91 | 1014.5 | |
| 20260507084017 | 51 | 0.0 | 0.0 | 0.00 | 0.56 | 0.21 | 91 | 1014.4 | |
| 20260507083120 | 51 | 0.0 | 0.0 | 0.00 | 0.56 | 0.21 | 91 | 1014.6 | |
| 20260507082017 | 51 | 0.0 | 0.0 | 0.00 | 0.56 | 0.21 | 92 | 1014.5 | |
| 20260507081017 | 50 | 0.0 | 0.0 | 0.00 | 0.56 | 0.21 | 93 | 1014.3 | |
| 20260507080017 | 50 | 0.0 | 0.0 | 0.00 | 0.56 | 0.21 | 93 | 1014.3 | |
| 20260507074040 | 49 | 0.0 | 0.0 | 0.00 | 0.56 | 0.21 | 92 | 1014.1 | |
| 20260507073020 | 49 | 0.0 | 0.0 | 0.00 | 0.56 | 0.21 | 92 | 1014.0 | |
| 20260507071037 | 49 | 0.0 | 0.0 | 0.01 | 0.56 | 0.21 | 92 | 1013.8 | |
| 20260507070116 | 49 | 0.0 | 0.0 | 0.01 | 0.56 | 0.21 | 93 | 1013.7 | |
| 20260507065017 | 48 | 0.0 | 0.0 | 0.02 | 0.56 | 0.21 | 93 | 1013.7 | |
| 20260507064017 | 48 | 0.0 | 0.0 | 0.02 | 0.56 | 0.21 | 93 | 1013.7 | |
| 20260507063017 | 48 | 0.0 | 0.0 | 0.02 | 0.56 | 0.21 | 93 | 1013.6 | |
| 20260507062017 | 48 | 0.0 | 0.0 | 0.02 | 0.55 | 0.20 | 93 | 1013.5 | |
| 20260507061015 | 48 | 0.0 | 0.0 | 0.02 | 0.55 | 0.20 | 93 | 1013.5 | |
| 20260507060017 | 48 | 0.0 | 0.0 | 0.02 | 0.55 | 0.20 | 93 | 1013.4 | |
| 20260507055037 | 48 | 0.0 | 0.0 | 0.02 | 0.54 | 0.20 | 93 | 1013.4 | |
| 20260507054017 | 48 | 0.0 | 0.0 | 0.03 | 0.54 | 0.20 | 93 | 1013.3 | |
| 20260507053037 | 48 | 0.0 | 0.0 | 0.03 | 0.54 | 0.19 | 93 | 1013.2 | |
| 20260507052017 | 48 | 0.0 | 0.0 | 0.03 | 0.53 | 0.18 | 92 | 1013.0 | |
| 20260507051040 | 48 | 0.0 | 0.0 | 0.04 | 0.53 | 0.18 | 93 | 1013.0 | |
| 20260507050020 | 48 | 0.0 | 0.0 | 0.05 | 0.53 | 0.18 | 93 | 1012.8 | |
| 20260507045017 | 48 | 0.0 | 0.0 | 0.05 | 0.52 | 0.17 | 93 | 1012.7 | |
| 20260507044037 | 48 | 0.0 | 0.0 | 0.04 | 0.51 | 0.17 | 92 | 1012.6 | |
| 20260507043017 | 48 | 0.0 | 0.0 | 0.04 | 0.50 | 0.16 | 93 | 1012.5 | |
| 20260507042037 | 48 | 0.0 | 0.0 | 0.04 | 0.50 | 0.15 | 93 | 1012.4 | |
| 20260507041018 | 48 | 0.0 | 0.0 | 0.04 | 0.49 | 0.14 | 92 | 1012.3 | |
| 20260507040017 | 48 | 0.0 | 0.0 | 0.04 | 0.48 | 0.13 | 93 | 1012.3 | |
| 20260507035057 | 48 | 0.0 | 0.0 | 0.04 | 0.47 | 0.13 | 93 | 1012.2 | |
| 20260507034017 | 48 | 0.0 | 0.0 | 0.04 | 0.47 | 0.13 | 93 | 1012.1 | |
| 20260507033037 | 48 | 0.0 | 0.0 | 0.04 | 0.46 | 0.12 | 93 | 1012.1 | |
| 20260507032140 | 48 | 0.0 | 0.0 | 0.04 | 0.46 | 0.11 | 93 | 1011.9 | |
| 20260507031117 | 48 | 0.0 | 0.0 | 0.04 | 0.45 | 0.10 | 93 | 1012.0 | |
| 20260507030017 | 48 | 0.0 | 0.0 | 0.04 | 0.44 | 0.09 | 93 | 1011.9 | |
| 20260507025100 | 48 | 0.0 | 0.0 | 0.04 | 0.43 | 0.09 | 93 | 1011.9 | |
| 20260507024019 | 48 | 0.0 | 0.0 | 0.05 | 0.43 | 0.09 | 93 | 1011.9 | |
| 20260507023100 | 48 | 0.0 | 0.0 | 0.05 | 0.43 | 0.08 | 93 | 1011.8 | |
| 20260507022140 | 48 | 0.0 | 0.0 | 0.05 | 0.42 | 0.07 | 93 | 1011.7 | |
| 20260507021037 | 48 | 0.0 | 0.0 | 0.04 | 0.41 | 0.06 | 93 | 1011.6 | |
| 20260507020017 | 48 | 0.0 | 0.0 | 0.04 | 0.40 | 0.06 | 93 | 1011.5 | |
| 20260507015016 | 48 | 0.0 | 0.0 | 0.03 | 0.39 | 0.05 | 92 | 1011.6 | |
| 20260507014017 | 48 | 0.0 | 0.0 | 0.03 | 0.39 | 0.04 | 92 | 1011.4 | |
| 20260507013056 | 48 | 0.0 | 0.0 | 0.02 | 0.38 | 0.03 | 92 | 1011.3 | |
| 20260507012140 | 48 | 0.0 | 0.0 | 0.02 | 0.37 | 0.02 | 92 | 1011.3 | |
| 20260507010019 | 48 | 0.0 | 0.0 | 0.02 | 0.36 | 0.02 | 92 | 1011.2 | |
| 20260507005057 | 48 | 0.0 | 0.0 | 0.02 | 0.36 | 0.02 | 92 | 1011.3 | |
| 20260507004036 | 48 | 0.0 | 0.0 | 0.02 | 0.35 | 0.01 | 92 | 1011.3 | |
| 20260507003016 | 48 | 0.0 | 0.0 | 0.02 | 0.35 | 0.01 | 91 | 1011.3 | |
| 20260507002016 | 48 | 0.0 | 0.0 | 0.02 | 0.35 | 0.00 | 91 | 1011.3 | |
| 20260507001016 | 48 | 0.0 | 0.0 | 0.02 | 0.35 | 0.00 | 91 | 1011.4 | |
| 20260507000017 | 48 | 0.0 | 0.0 | 0.02 | 0.35 | 0.35 | 91 | 1011.3 | |
| 20260506235035 | 48 | 0.0 | 0.0 | 0.02 | 0.34 | 0.34 | 91 | 1011.4 | |
| 20260506234036 | 48 | 0.0 | 0.0 | 0.02 | 0.34 | 0.34 | 91 | 1011.4 | |
| 20260506233035 | 48 | 0.0 | 0.0 | 0.01 | 0.33 | 0.33 | 90 | 1011.5 | |
| 20260506232015 | 48 | 0.0 | 0.0 | 0.02 | 0.33 | 0.33 | 90 | 1011.5 | |
| 20260506231119 | 48 | 0.0 | 0.0 | 0.02 | 0.33 | 0.33 | 90 | 1011.5 | |
| 20260506230015 | 48 | 0.0 | 0.0 | 0.01 | 0.32 | 0.32 | 90 | 1011.5 | |
| 20260506225015 | 48 | 0.0 | 0.0 | 0.01 | 0.32 | 0.32 | 90 | 1011.5 | |
| 20260506224035 | 48 | 0.0 | 0.0 | 0.01 | 0.32 | 0.32 | 90 | 1011.5 | |
| 20260506223016 | 48 | 0.0 | 0.0 | 0.01 | 0.32 | 0.32 | 90 | 1011.4 | |
| 20260506222015 | 48 | 0.0 | 0.0 | 0.01 | 0.31 | 0.31 | 90 | 1011.3 | |
| 20260506221055 | 48 | 0.0 | 0.0 | 0.01 | 0.31 | 0.31 | 90 | 1011.2 | |
| 20260506220015 | 48 | 0.0 | 0.0 | 0.01 | 0.31 | 0.31 | 90 | 1011.1 | |
| 20260506215038 | 48 | 0.0 | 0.0 | 0.01 | 0.31 | 0.31 | 90 | 1011.0 | |
| 20260506214018 | 48 | 0.0 | 0.0 | 0.02 | 0.31 | 0.31 | 90 | 1010.9 | |
| 20260506213015 | 48 | 0.0 | 0.0 | 0.02 | 0.31 | 0.31 | 90 | 1011.0 | |
| 20260506212100 | 48 | 0.0 | 0.0 | 0.02 | 0.31 | 0.31 | 90 | 1010.9 | |
| 20260506211017 | 49 | 0.0 | 0.0 | 0.02 | 0.31 | 0.31 | 90 | 1010.8 | |
| 20260506210040 | 49 | 0.0 | 0.0 | 0.02 | 0.31 | 0.31 | 90 | 1010.9 | |
| 20260506205020 | 49 | 0.0 | 0.0 | 0.03 | 0.31 | 0.31 | 90 | 1010.8 | |
| 20260506204017 | 49 | 0.0 | 0.0 | 0.03 | 0.30 | 0.30 | 91 | 1011.0 | |
| 20260506203057 | 49 | 0.0 | 0.0 | 0.03 | 0.29 | 0.29 | 91 | 1010.9 | |
| 20260506202057 | 49 | 0.0 | 0.0 | 0.03 | 0.29 | 0.29 | 91 | 1010.8 | |
| 20260506201017 | 49 | 0.0 | 0.0 | 0.04 | 0.29 | 0.29 | 91 | 1010.7 | |
| 20260506200017 | 49 | 0.0 | 0.0 | 0.04 | 0.28 | 0.28 | 91 | 1010.7 | |
| 20260506195017 | 49 | 0.0 | 0.0 | 0.04 | 0.28 | 0.28 | 90 | 1010.6 | |
| 20260506194121 | 49 | 0.0 | 0.0 | 0.04 | 0.27 | 0.27 | 90 | 1010.5 | |
| 20260506193100 | 49 | 0.0 | 0.0 | 0.04 | 0.26 | 0.26 | 90 | 1010.2 | |
| 20260506192200 | 49 | 0.0 | 0.0 | 0.06 | 0.26 | 0.26 | 90 | 1010.1 | |
| 20260506191117 | 49 | 0.0 | 0.0 | 0.06 | 0.25 | 0.25 | 90 | 1010.0 | |
| 20260506190057 | 49 | 0.0 | 0.0 | 0.06 | 0.24 | 0.24 | 90 | 1010.0 | |
| 20260506185057 | 49 | 0.0 | 0.0 | 0.06 | 0.24 | 0.24 | 90 | 1009.9 | |
| 20260506184057 | 49 | 0.0 | 0.0 | 0.06 | 0.23 | 0.23 | 90 | 1009.8 | |
| 20260506183017 | 49 | 0.0 | 0.0 | 0.06 | 0.22 | 0.22 | 90 | 1009.7 | |
| 20260506182037 | 50 | 0.0 | 0.0 | 0.06 | 0.20 | 0.20 | 91 | 1009.5 | |
| 20260506181017 | 50 | 0.0 | 0.0 | 0.06 | 0.20 | 0.20 | 91 | 1009.4 | |
| 20260506180017 | 50 | 0.0 | 0.0 | 0.06 | 0.19 | 0.18 | 91 | 1009.3 | |
| 20260506175017 | 50 | 0.0 | 0.0 | 0.06 | 0.18 | 0.17 | 90 | 1009.2 | |
| 20260506174017 | 50 | 0.0 | 0.0 | 0.06 | 0.17 | 0.17 | 90 | 1009.1 | |
| 20260506173057 | 50 | 0.0 | 0.0 | 0.06 | 0.17 | 0.16 | 90 | 1008.9 | |
| 20260506172017 | 50 | 0.0 | 0.0 | 0.06 | 0.16 | 0.15 | 90 | 1008.8 | |
| 20260506171017 | 50 | 0.0 | 0.0 | 0.05 | 0.14 | 0.13 | 90 | 1008.7 | |
| 20260506170057 | 50 | 0.0 | 0.0 | 0.05 | 0.13 | 0.13 | 90 | 1008.6 | |
| 20260506165037 | 50 | 0.0 | 0.0 | 0.05 | 0.13 | 0.12 | 90 | 1008.6 | |
| 20260506164017 | 50 | 0.0 | 0.0 | 0.05 | 0.12 | 0.11 | 90 | 1008.6 | |
| 20260506163100 | 50 | 0.0 | 0.0 | 0.06 | 0.11 | 0.10 | 90 | 1008.6 | |
| 20260506162017 | 50 | 0.0 | 0.0 | 0.05 | 0.09 | 0.09 | 89 | 1008.6 | |
| 20260506161037 | 50 | 0.0 | 0.0 | 0.05 | 0.09 | 0.09 | 90 | 1008.6 | |
| 20260506160116 | 50 | 0.0 | 0.0 | 0.04 | 0.09 | 0.08 | 89 | 1008.6 | |
| 20260506155016 | 50 | 0.0 | 0.0 | 0.03 | 0.08 | 0.07 | 89 | 1008.6 | |
| 20260506154057 | 51 | 0.0 | 0.0 | 0.02 | 0.07 | 0.06 | 88 | 1008.5 | |
| 20260506153017 | 51 | 0.0 | 0.0 | 0.01 | 0.06 | 0.05 | 86 | 1008.4 | |
| 20260506152117 | 51 | 0.0 | 0.0 | 0.00 | 0.05 | 0.04 | 85 | 1008.2 | |
| 20260506151017 | 52 | 0.0 | 0.0 | 0.00 | 0.05 | 0.04 | 86 | 1008.3 | |
| 20260506150016 | 52 | 0.0 | 0.0 | 0.01 | 0.05 | 0.04 | 87 | 1008.2 | |
| 20260506145120 | 52 | 0.0 | 0.0 | 0.01 | 0.05 | 0.04 | 87 | 1008.2 | |
| 20260506144200 | 52 | 0.0 | 0.0 | 0.01 | 0.06 | 0.04 | 87 | 1008.1 | |
| 20260506143120 | 52 | 0.0 | 0.0 | 0.01 | 0.07 | 0.04 | 86 | 1008.1 | |
| 20260506142057 | 52 | 0.0 | 0.0 | 0.02 | 0.08 | 0.04 | 86 | 1008.1 | |
| 20260506141137 | 51 | 0.0 | 0.0 | 0.02 | 0.09 | 0.04 | 86 | 1008.1 | |
| 20260506140036 | 51 | 0.0 | 0.0 | 0.01 | 0.08 | 0.03 | 87 | 1008.0 |